• în Republica Moldova
  • Lista ţărilor
  • Pe 7 zile
  • Temperatura apei
  • Hartă satelitară
  • Meteo pe hartă
  • Widget-uri
  • user-avatar
    Intrare

    Meteo pe oră la Sidi Bu-l-Abbas

    Astăzi, 29 Iunie, Joi

    Timp Temperatura Precipitaţii Vânt Presiune Umiditate
    00:00 +21°C° 0 mm 3 m/s 719 mmHg 60%
    01:00 +21°C° 0 mm 3 m/s 718 mmHg 62%
    02:00 +20°C° 0 mm 3 m/s 718 mmHg 64%
    03:00 +20°C° 0 mm 3 m/s 718 mmHg 66%
    04:00 +20°C° 0 mm 3 m/s 718 mmHg 65%
    05:00 +21°C° 0 mm 3 m/s 718 mmHg 64%
    06:00 +21°C° 0 mm 3 m/s 718 mmHg 62%
    07:00 +23°C° 0 mm 4 m/s 719 mmHg 56%
    08:00 +26°C° 0 mm 4 m/s 719 mmHg 49%
    09:00 +27°C° 0 mm 5 m/s 719 mmHg 43%
    10:00 +28°C° 0 mm 5 m/s 719 mmHg 40%
    11:00 +30°C° 0 mm 5 m/s 719 mmHg 37%
    12:00 +32°C° 0 mm 6 m/s 719 mmHg 35%
    13:00 +32°C° 0 mm 6 m/s 718 mmHg 35%
    14:00 +32°C° 0 mm 6 m/s 718 mmHg 35%
    15:00 +32°C° 0 mm 6 m/s 718 mmHg 35%
    16:00 +30°C° 0 mm 6 m/s 718 mmHg 36%
    17:00 +29°C° 0 mm 6 m/s 717 mmHg 37%
    18:00 +28°C° 0 mm 5 m/s 717 mmHg 39%
    19:00 +26°C° 0 mm 5 m/s 717 mmHg 42%
    20:00 +25°C° 0 mm 4 m/s 718 mmHg 45%
    21:00 +22°C° 0 mm 3 m/s 718 mmHg 48%
    22:00 +22°C° 0 mm 3 m/s 718 mmHg 48%
    23:00 +21°C° 0 mm 3 m/s 718 mmHg 47%

    Mâine, 30 Iunie, Vineri

    Timp Temperatura Precipitaţii Vânt Presiune Umiditate
    00:00 +21°C° 0 mm 3 m/s 718 mmHg 46%
    01:00 +21°C° 0 mm 4 m/s 718 mmHg 47%
    02:00 +21°C° 0 mm 4 m/s 718 mmHg 47%
    03:00 +21°C° 0 mm 4 m/s 718 mmHg 47%
    04:00 +21°C° 0 mm 4 m/s 719 mmHg 50%
    05:00 +21°C° 0 mm 5 m/s 719 mmHg 52%
    06:00 +21°C° 0 mm 5 m/s 719 mmHg 55%
    07:00 +22°C° 0 mm 6 m/s 720 mmHg 51%
    08:00 +23°C° 0 mm 6 m/s 720 mmHg 46%
    09:00 +24°C° 0 mm 6 m/s 720 mmHg 42%
    10:00 +26°C° 0 mm 6 m/s 720 mmHg 38%
    11:00 +27°C° 0 mm 6 m/s 720 mmHg 34%
    12:00 +28°C° 0 mm 7 m/s 720 mmHg 31%
    13:00 +28°C° 0 mm 6 m/s 720 mmHg 29%
    14:00 +28°C° 0 mm 6 m/s 720 mmHg 27%
    15:00 +28°C° 0 mm 6 m/s 720 mmHg 26%
    16:00 +27°C° 0 mm 5 m/s 720 mmHg 25%
    17:00 +26°C° 0 mm 5 m/s 720 mmHg 25%
    18:00 +25°C° 0 mm 4 m/s 720 mmHg 25%
    19:00 +24°C° 0 mm 3 m/s 720 mmHg 28%
    20:00 +21°C° 0 mm 2 m/s 721 mmHg 31%
    21:00 +20°C° 0 mm 1 m/s 721 mmHg 35%
    22:00 +20°C° 0 mm 1 m/s 721 mmHg 35%
    23:00 +19°C° 0 mm 1 m/s 721 mmHg 35%

    Poimâine, 1 Iulie, Sâmbătă

    Timp Temperatura Precipitaţii Vânt Presiune Umiditate
    00:00 +19°C° 0 mm 1 m/s 721 mmHg 35%
    01:00 +18°C° 0 mm 1 m/s 720 mmHg 37%
    02:00 +18°C° 0 mm 1 m/s 720 mmHg 38%
    03:00 +15°C° 0 mm 0 m/s 720 mmHg 40%
    04:00 +18°C° 0 mm 1 m/s 720 mmHg 37%
    05:00 +19°C° 0 mm 1 m/s 721 mmHg 33%
    06:00 +20°C° 0 mm 1 m/s 721 mmHg 30%
    07:00 +22°C° 0 mm 1 m/s 721 mmHg 27%
    08:00 +24°C° 0 mm 1 m/s 722 mmHg 24%
    09:00 +27°C° 0 mm 2 m/s 722 mmHg 21%
    10:00 +28°C° 0 mm 2 m/s 722 mmHg 19%
    11:00 +30°C° 0 mm 3 m/s 722 mmHg 17%
    12:00 +32°C° 0 mm 4 m/s 722 mmHg 15%
    13:00 +32°C° 0 mm 4 m/s 722 mmHg 16%
    14:00 +33°C° 0 mm 5 m/s 722 mmHg 17%
    15:00 +33°C° 0 mm 5 m/s 722 mmHg 18%
    16:00 +32°C° 0 mm 6 m/s 721 mmHg 22%
    17:00 +30°C° 0 mm 6 m/s 721 mmHg 27%
    18:00 +29°C° 0 mm 6 m/s 721 mmHg 31%
    19:00 +27°C° 0 mm 5 m/s 722 mmHg 37%
    20:00 +25°C° 0 mm 4 m/s 722 mmHg 44%
    21:00 +22°C° 0 mm 3 m/s 722 mmHg 50%
    22:00 +22°C° 0 mm 3 m/s 722 mmHg 52%
    23:00 +21°C° 0 mm 2 m/s 723 mmHg 54%

    2 Iulie, Duminică

    Timp Temperatura Precipitaţii Vânt Presiune Umiditate
    00:00 +21°C° 0 mm 2 m/s 723 mmHg 56%
    01:00 +20°C° 0 mm 2 m/s 722 mmHg 57%
    02:00 +20°C° 0 mm 2 m/s 722 mmHg 59%
    03:00 +19°C° 0 mm 2 m/s 722 mmHg 60%
    04:00 +20°C° 0 mm 2 m/s 722 mmHg 58%
    05:00 +20°C° 0 mm 2 m/s 723 mmHg 56%
    06:00 +21°C° 0 mm 2 m/s 723 mmHg 54%
    07:00 +24°C° 0 mm 3 m/s 723 mmHg 45%
    08:00 +27°C° 0 mm 3 m/s 723 mmHg 36%
    09:00 +29°C° 0 mm 4 m/s 724 mmHg 28%
    10:00 +32°C° 0 mm 4 m/s 723 mmHg 25%
    11:00 +33°C° 0 mm 5 m/s 723 mmHg 22%
    12:00 +35°C° 0 mm 5 m/s 723 mmHg 19%
    13:00 +35°C° 0 mm 5 m/s 723 mmHg 20%
    14:00 +36°C° 0 mm 6 m/s 722 mmHg 20%
    15:00 +36°C° 0 mm 6 m/s 722 mmHg 21%
    16:00 +34°C° 0 mm 6 m/s 722 mmHg 26%
    17:00 +33°C° 0 mm 6 m/s 722 mmHg 31%
    18:00 +30°C° 0 mm 6 m/s 721 mmHg 36%
    19:00 +28°C° 0 mm 5 m/s 722 mmHg 42%
    20:00 +26°C° 0 mm 4 m/s 722 mmHg 49%
    21:00 +24°C° 0 mm 3 m/s 722 mmHg 56%
    22:00 +24°C° 0 mm 2 m/s 722 mmHg 59%
    23:00 +23°C° 0 mm 2 m/s 722 mmHg 62%

    3 Iulie, Luni

    Timp Temperatura Precipitaţii Vânt Presiune Umiditate
    00:00 +23°C° 0 mm 1 m/s 722 mmHg 64%
    01:00 +22°C° 0 mm 1 m/s 722 mmHg 66%
    02:00 +22°C° 0 mm 1 m/s 721 mmHg 67%
    03:00 +22°C° 0 mm 1 m/s 721 mmHg 68%
    04:00 +22°C° 0 mm 1 m/s 721 mmHg 65%
    05:00 +23°C° 0 mm 1 m/s 721 mmHg 62%
    06:00 +24°C° 0 mm 1 m/s 722 mmHg 59%
    07:00 +27°C° 0 mm 1 m/s 722 mmHg 50%
    08:00 +29°C° 0 mm 1 m/s 722 mmHg 41%
    09:00 +32°C° 0 mm 2 m/s 722 mmHg 32%
    10:00 +35°C° 0 mm 2 m/s 722 mmHg 29%
    11:00 +37°C° 0 mm 3 m/s 722 mmHg 27%
    12:00 +38°C° 0 mm 4 m/s 722 mmHg 24%
    13:00 +38°C° 0 mm 4 m/s 721 mmHg 25%
    14:00 +39°C° 0 mm 5 m/s 721 mmHg 25%
    15:00 +39°C° 0 mm 5 m/s 720 mmHg 26%
    16:00 +37°C° 0 mm 5 m/s 720 mmHg 29%
    17:00 +36°C° 0 mm 5 m/s 720 mmHg 32%
    18:00 +34°C° 0 mm 4 m/s 720 mmHg 34%
    19:00 +31°C° 0,1 mm 3 m/s 720 mmHg 41%
    20:00 +29°C° 0,1 mm 3 m/s 720 mmHg 48%
    21:00 +27°C° 0,1 mm 2 m/s 721 mmHg 55%
    22:00 +27°C° 0 mm 2 m/s 721 mmHg 58%
    23:00 +26°C° 0 mm 2 m/s 721 mmHg 61%

    4 Iulie, Marţi

    Timp Temperatura Precipitaţii Vânt Presiune Umiditate
    00:00 +26°C° 0 mm 2 m/s 720 mmHg 64%
    01:00 +25°C° 0 mm 1 m/s 720 mmHg 66%
    02:00 +24°C° 0 mm 1 m/s 720 mmHg 69%
    03:00 +24°C° 0 mm 1 m/s 720 mmHg 72%
    04:00 +24°C° 0 mm 1 m/s 720 mmHg 70%
    05:00 +25°C° 0 mm 1 m/s 720 mmHg 69%
    06:00 +25°C° 0 mm 1 m/s 720 mmHg 67%
    07:00 +28°C° 0 mm 1 m/s 720 mmHg 58%
    08:00 +30°C° 0 mm 2 m/s 721 mmHg 49%
    09:00 +32°C° 0 mm 2 m/s 721 mmHg 40%
    10:00 +35°C° 0 mm 3 m/s 721 mmHg 37%
    11:00 +36°C° 0 mm 3 m/s 721 mmHg 34%
    12:00 +38°C° 0 mm 4 m/s 721 mmHg 31%
    13:00 +38°C° 0 mm 4 m/s 720 mmHg 32%
    14:00 +38°C° 0 mm 4 m/s 720 mmHg 33%
    15:00 +37°C° 0 mm 5 m/s 720 mmHg 34%
    16:00 +36°C° 0 mm 4 m/s 719 mmHg 37%
    17:00 +35°C° 0 mm 4 m/s 719 mmHg 40%
    18:00 +34°C° 0 mm 3 m/s 719 mmHg 43%
    19:00 +31°C° 0 mm 2 m/s 719 mmHg 50%
    20:00 +29°C° 0 mm 2 m/s 719 mmHg 56%
    21:00 +27°C° 0 mm 1 m/s 720 mmHg 63%
    22:00 +27°C° 0 mm 1 m/s 720 mmHg 64%
    23:00 +26°C° 0 mm 1 m/s 720 mmHg 66%
    Arată mai mult